Location: Albany
(35.0170°S, 117.8920°E)
Time: 09:24:43
(UTC+08:00)

S-56A Canister/Altair - Pass Details

Date: 26 January 2021
Orbit: 632 x 2501 km, 38.9° (Epoch: 25 February)

Event Time Altitude Azimuth Distance (km) Brightness Sun altitude
Rises 18:54:24 0° 248° (WSW) 6,195 15.4 4.0°
Reaches altitude 10° 18:58:35 10° 250° (WSW) 5,146 14.5 3.2°
Maximum altitude 19:13:06 65° 327° (NNW) 2,280 10.0 0.5°
Drops below altitude 10° 19:23:45 10° 46° (NE) 3,880 10.5 -1.5°
Enters shadow 19:26:22 - 49° (NE) 4,610 10.9 -2.0°
Sets 19:26:28 0° 49° (NE) 4,637 - -2.0°
